Погода в Ананье

Россия / Нижегородская область     55°50′16″N   45°16′08″E
темп.,
°C
ветер,
м/с
пор.,
м/с
влажн.,
%
обл.,
%
осадки,
мм/ч
давл.,
гПа
погр.,
м
14 мая, пт
пт1400:00+14ююв229438 0.9 101925
03:00+13ююз119374 0.9 101910
06:00+16св1189100 0.0 101960
09:00+19всв2279100 0.0 1019438
12:00+21юв2269100 0.0 1018930
15:00+23юз356325 1.2 10181192
18:00+22зюз237369 0.3 1017106
21:00+18ююв228295 0.3 101711
15 мая, сб
сб1500:00+17юв228675 0.0 101718
03:00+16юв4790100 0.6 1016117
06:00+18ююв3685100 0.0 1015168
09:00+21ю6966100 0.0 1015481
12:00+24ю71356100 0.0 1015898
15:00+24ю81353100 0.0 10141004
18:00+22ю6136310 0.0 1014451
21:00+17ю3127824 0.0 1014193
16 мая, вс
вс1600:00+16ю3108022 0.0 1014169
03:00+14ю338541 0.0 101437
06:00+16ююз258592 0.0 1015147
09:00+20ююз3575100 0.0 1015465
12:00+22юз4667100 0.0 10161029
15:00+22юз6972100 0.9 1016857
18:00+19юз38816 0.3 1015339
21:00+16юз22885 0.3 101616
17 мая, пн
пн1700:00+15ююз2291100 1.6 101618
03:00+15ююз1189100 2.0 101711
06:00+17вюв1184100 0.3 101748
09:00+21вюв22725 0.3 1017486
12:00+25ююв23555 0.0 1017955
15:00+26ююз24492 0.0 10161218
18:00+25ююв23655 0.0 101550
21:00+20ююв336925 0.0 101621
18 мая, вт
вт1800:00+17ю22656 0.0 101611
03:00+16ююв22646 0.0 101614
06:00+18юв25664 0.0 101697
09:00+23ююв46562 0.0 1015348
12:00+26ююв464499 0.0 1015799
15:00+27ююв46470 0.0 10141396
18:00+24ююв37645 0.0 1014167
21:00+19юв347149 0.0 101442